CW7229 Weather Reports


Display with metric or nautical units.
time (UTC)temp
F
wind
direction
speed
MPH
gust
MPH
rain 1hr
in
rain 24hr
in
rain mn
in
humidity
%
barometer
mb
20260904060133 67 171 4.0 6.0 0.00 0.00 0.00 54 1008.4
20260904053113 66 186 2.0 4.0 0.00 0.00 0.00 55 1009.4
20260904050133 65 160 4.0 6.0 0.00 0.00 0.00 55 1009.4
20260904043113 65 154 4.0 6.0 0.00 0.00 0.00 56 1009.4
20260904033114 64 177 3.0 4.0 0.00 0.00 0.00 54 1010.4
20260904023114 64 198 3.0 5.0 0.00 0.00 0.00 52 1011.4
20260904013114 64 215 3.0 4.0 0.00 0.00 0.00 47 1011.4
20260904003114 65 233 3.0 6.0 0.00 0.00 0.00 46 1012.4
20260904000114 65 198 4.0 6.0 0.00 0.00 0.00 45 1012.4
20260903230113 65 191 4.0 7.0 0.00 0.00 0.00 48 1013.4
20260903223113 66 245 0.0 0.0 0.00 0.00 0.00 49 1013.4
20260903220113 67 238 3.0 6.0 0.00 0.00 0.00 49 1013.4
20260903213113 67 312 2.0 7.0 0.00 0.00 0.00 47 1013.4
20260903203113 66 300 0.0 0.0 0.00 0.00 0.00 48 1013.4
20260903200113 66 157 0.0 4.0 0.00 0.00 0.00 47 1013.4
20260903190113 69 259 3.0 4.0 0.00 0.00 0.00 41 1013.4
20260903183113 69 230 5.0 8.0 0.00 0.00 0.00 40 1013.4
20260903173113 69 253 5.0 11.0 0.00 0.00 0.00 36 1013.4
20260903170132 70 214 6.0 12.0 0.00 0.00 0.00 36 1012.3
20260903160112 71 271 7.0 10.0 0.00 0.00 0.00 33 1012.3
20260903153113 71 231 7.0 13.0 0.00 0.00 0.00 33 1012.3
20260903150113 71 286 6.0 11.0 0.00 0.00 0.00 33 1012.3
20260903143112 71 268 8.0 17.0 0.00 0.00 0.00 34 1012.3
20260903140113 69 169 5.0 12.0 0.00 0.00 0.00 39 1013.4
20260903133112 69 217 4.0 13.0 0.00 0.00 0.00 36 1013.4
20260903130113 69 93 8.0 12.0 0.00 0.00 0.00 35 1013.4
20260903123113 70 353 5.0 12.0 0.00 0.00 0.00 33 1012.3
20260903120113 71 183 8.0 13.0 0.00 0.00 0.00 31 1012.3
20260903113113 72 360 9.0 15.0 0.00 0.00 0.00 28 1012.3
20260903103113 69 206 6.0 8.0 0.00 0.00 0.00 32 1013.4
20260903093115 67 224 6.0 8.0 0.00 0.00 0.00 33 1013.4
20260903090115 66 201 7.0 10.0 0.00 0.00 0.00 33 1013.4
20260903083115 66 186 7.0 8.0 0.00 0.00 0.00 33 1013.4
20260903073115 64 197 8.0 11.0 0.00 0.00 0.00 34 1014.5
20260903070114 63 161 7.0 10.0 0.00 0.00 0.00 35 1014.5